[[{"header":{"parameterUnit":"m.s-1","parameterCategory":1,"la1":30.2991,"la2":30.254,"lo1":-89.0895,"lo2":-89.0444,"dy":0.0017,"dx":0.0017,"nx":28,"ny":28,"refTime":"2024-07-03T21:00:00:Z","depth":0,"parameterNumber":2,"parameterNumberName":"U-component_of_WINDS"},"data":[0,0,0,0,0,0,0,0,0,0,0,0,0,0,0,0,0,0,0,0,0,0,0,0,0,0,0,0,0,0,0,0,0,0,0,0,0,0,0,0,0,0,0,0,0,0,0,0,0,0,0,0,0,0,0,0,0,0,4.1806,4.1807,0,4.1919,4.192,4.1921,4.1862,4.1859,4.1856,4.1853,4.1969,4.1974,4.198,0,0,0,0,0,0,0,0,0,0,0,0,0,4.1537,4.1543,4.1806,4.1808,4.1809,4.1919,4.192,4.1922,4.1862,4.1859,4.1855,4.1851,4.1967,4.1974,4.1981,0,0,0,0,0,0,0,0,0,0,0,0,0,4.1653,4.1544,4.1806,4.1793,4.1792,4.1918,4.192,4.1922,4.1863,4.1859,4.1854,4.185,4.1964,4.1973,4.1982,4.2127,0,0,4.2009,4.2013,0,0,0,0,0,0,0,0,4.1646,4.1662,4.1793,4.1794,4.1794,4.1872,4.1868,4.1991,4.1864,4.1836,4.1853,4.1848,4.194,4.1951,4.1982,4.2133,4.2138,4.201,4.2015,4.2019,4.2021,0,0,0,0,0,0,0,4.1638,4.1657,4.1851,4.1795,4.1796,4.178,4.1791,4.1891,4.1912,4.1838,4.1834,4.1848,4.1939,4.1973,4.1984,4.2139,4.2009,4.2017,4.2023,4.2026,4.2411,4.2416,0,0,0,0,0,0,4.1631,4.1651,4.1847,4.1854,4.1707,4.1789,4.1801,4.1851,4.1911,4.1916,4.1852,4.1845,4.196,4.1974,4.1988,4.2159,4.2019,4.2027,4.2032,4.2406,4.2412,4.2418,0,0,0,0,0,0,4.1626,4.1649,4.1843,4.1751,4.1775,4.1798,4.1855,4.1856,4.189,4.1922,4.1925,4.1883,4.1957,4.1975,4.2092,4.2162,4.2031,4.2039,4.24,4.2408,4.2415,4.2504,0,0,0,0,0,0,4.1618,4.1648,4.1704,4.1753,4.178,4.1946,4.1859,4.1861,4.1905,4.1897,4.1951,4.1956,4.1955,4.2079,4.2101,4.2172,4.2046,4.2394,4.2404,4.2413,4.2495,4.2514,4.253,0,0,0,0,0,4.1609,4.1726,4.1707,4.1731,4.1851,4.195,4.1965,4.1962,4.1911,4.1967,4.1987,4.1954,4.2152,4.2092,4.2116,4.2191,4.239,4.2401,4.2412,4.2488,4.251,4.253,0,0,0,0,0,0,4.1685,4.1732,4.1712,4.1848,4.1895,4.194,4.201,4.1987,4.205,4.204,4.2033,4.2045,4.2166,4.219,4.2123,4.2332,4.2263,4.2279,4.2312,4.2334,4.2351,4.2341,4.2053,0,0,0,0,0,4.1717,4.1794,4.1831,4.1948,4.1973,4.1988,4.2031,4.2024,4.2072,4.2092,4.2121,4.2169,4.2241,4.2289,4.2358,4.2499,4.2508,4.2562,4.2579,4.2593,4.2607,4.2679,4.2703,4.2454,4.2454,4.2454,0,0,4.1786,4.1821,4.187,4.1964,4.2,4.2078,4.2005,4.2092,4.215,4.2106,4.2216,4.2239,4.2292,4.2421,4.2479,4.2445,4.2678,4.2608,4.2619,4.2625,4.2693,4.2717,4.2738,4.2461,4.246,4.2459,0,0,4.1949,4.1985,4.2084,4.2121,4.2175,4.2184,4.2208,4.2256,4.2268,4.238,4.2347,4.2415,4.2541,4.2579,4.2615,4.279,4.2761,4.2813,4.2903,4.2973,4.2993,4.301,4.3069,4.3091,4.2827,4.2827,4.2827,0,4.2027,4.2144,4.2138,4.2227,4.2268,4.2231,4.233,4.2366,4.244,4.2469,4.243,4.2584,4.2618,4.2753,4.2795,4.2827,4.2852,4.2806,4.2991,4.3008,4.3024,4.308,4.3103,4.2833,4.2832,4.2831,4.2831,0,4.2235,4.2317,4.239,4.2461,4.2511,4.2605,4.2612,4.2663,4.2651,4.2663,4.2775,4.2814,4.2888,4.292,4.291,4.3053,4.3029,4.2991,4.292,4.3053,4.3106,4.3128,4.2841,4.2839,4.2837,4.2836,0,0,4.245,4.2515,4.2542,4.2572,4.2628,4.2691,4.2782,4.2853,4.2895,4.2948,4.3022,4.3128,4.3092,4.3132,4.3127,4.3189,4.332,4.3142,4.3143,4.3171,4.3476,4.3502,4.3527,4.3302,4.3307,4.331,4.347,0,4.2615,4.2773,4.2769,4.2916,4.2989,4.2954,4.3033,4.3075,4.3089,4.3152,4.3168,4.3241,4.319,4.3213,4.3274,4.3292,4.3381,4.3281,4.3369,4.3372,4.3354,4.3555,4.3584,4.3733,4.3491,4.3494,4.3497,0,4.2829,4.2886,4.304,4.3081,4.3112,4.3183,4.3246,4.3309,4.3355,4.336,4.3404,4.3388,4.3478,4.3406,4.3529,4.346,4.3496,4.351,4.3516,4.3522,4.3441,4.3564,4.3781,4.3802,4.353,4.3527,4.3525,0,4.2965,4.3082,4.3187,4.3215,4.3268,4.3317,4.3342,4.3384,4.3426,4.3481,4.3508,4.3574,4.3609,4.366,4.3661,4.3609,4.3784,4.3713,4.3789,4.3789,4.3825,4.3823,4.4049,4.3854,4.3854,4.3853,4.3853,0,4.3148,4.3243,4.3249,4.3314,4.3418,4.3412,4.3515,4.3534,4.3571,4.3638,4.3613,4.3676,4.3674,4.3738,4.374,4.3839,4.3856,4.3861,4.386,4.3862,4.3861,4.3884,4.3872,4.3859,4.3858,4.3857,4.3856,0,4.3318,4.3327,4.3439,4.3479,4.3491,4.3565,4.3599,4.366,4.367,4.3755,4.3775,4.3791,4.3865,4.3871,4.3957,4.3957,4.4077,4.4066,4.4061,4.4058,4.4132,4.4123,4.4378,4.441,4.4197,4.4199,4.4201,0,4.3433,4.3504,4.3551,4.3594,4.362,4.369,4.3732,4.3728,4.3773,4.3829,4.3883,4.3954,4.401,4.4128,4.4148,4.4212,4.4201,4.4286,4.421,4.4209,4.4198,4.4192,4.4198,4.4299,4.4302,4.4304,4.4305,0,4.3634,4.3634,4.3696,4.3759,4.3809,4.3859,4.3904,4.3941,4.3942,4.3994,4.4068,4.4111,4.4197,4.4267,4.433,4.4353,4.4329,4.4329,4.4349,4.4351,4.4343,4.4344,4.4097,4.4323,4.4321,4.432,4.4319,4.4318,4.3778,4.3838,4.388,4.3948,4.3982,4.4025,4.4083,4.41,4.4161,4.423,4.4225,4.4306,4.4347,4.4429,4.4457,4.452,4.4491,4.4522,4.4529,4.4535,4.4541,4.4335,4.4532,4.4531,4.4531,4.453,4.453,0,4.3975,4.3999,4.4063,4.4126,4.418,4.4152,4.4201,4.4247,4.4318,4.4359,4.4414,4.4498,4.4564,4.4588,4.4652,4.4698,4.4688,4.4714,4.471,4.4715,4.4565,4.4539,4.4721,4.4721,4.4721,4.4721,4.4721,4.4721,4.4084,4.4183,4.4187,4.4302,4.4326,4.4404,4.4434,4.4472,4.4504,4.4598,4.4653,4.4668,4.4701,4.4767,4.4826,4.4831,4.4855,4.4886,4.4886,4.4745,4.4726,4.4707,4.4683,4.4892,4.4892,4.5029,4.5031,4.5032]},{"header":{"parameterUnit":"m.s-1","parameterCategory":1,"la1":30.2991,"la2":30.254,"lo1":-89.0895,"lo2":-89.0444,"dy":0.0017,"dx":0.0017,"nx":28,"ny":28,"refTime":"2024-07-03T21:00:00:Z","depth":0,"parameterNumber":3,"parameterNumberName":"V-component_of_WINDS"},"data":[0,0,0,0,0,0,0,0,0,0,0,0,0,0,0,0,0,0,0,0,0,0,0,0,0,0,0,0,0,0,0,0,0,0,0,0,0,0,0,0,0,0,0,0,0,0,0,0,0,0,0,0,0,0,0,0,0,0,2.0981,2.0981,0,2.1057,2.1058,2.1059,2.1047,2.1046,2.1045,2.1044,2.1121,2.1124,2.1127,0,0,0,0,0,0,0,0,0,0,0,0,0,2.0822,2.0825,2.098,2.0981,2.0982,2.1057,2.1058,2.1059,2.1048,2.1046,2.1045,2.1043,2.112,2.1124,2.1128,0,0,0,0,0,0,0,0,0,0,0,0,0,2.0894,2.0826,2.098,2.0986,2.0987,2.1057,2.1058,2.1059,2.1048,2.1046,2.1044,2.1042,2.1119,2.1123,2.1128,2.1197,0,0,2.1143,2.1145,0,0,0,0,0,0,0,0,2.089,2.09,2.0984,2.0985,2.0987,2.1041,2.103,2.1105,2.1048,2.1025,2.1044,2.1041,2.1096,2.1102,2.1121,2.1201,2.1204,2.1144,2.1147,2.1149,2.115,0,0,0,0,0,0,0,2.0885,2.0896,2.1011,2.0985,2.0987,2.0984,2.0992,2.1045,2.107,2.1027,2.1026,2.1035,2.1096,2.1116,2.1123,2.1205,2.1143,2.1148,2.1151,2.1153,2.1343,2.1345,0,0,0,0,0,0,2.0879,2.0892,2.1008,2.1013,2.0933,2.0988,2.0997,2.1025,2.107,2.1074,2.1037,2.1035,2.1109,2.1117,2.1125,2.1208,2.1149,2.1153,2.1156,2.1341,2.1344,2.1346,0,0,0,0,0,0,2.0875,2.0889,2.1005,2.0953,2.0967,2.0993,2.1025,2.1028,2.1048,2.1077,2.1082,2.1053,2.1108,2.1119,2.1179,2.1211,2.1155,2.116,2.1339,2.1342,2.1345,2.1374,0,0,0,0,0,0,2.0871,2.0888,2.0915,2.0953,2.097,2.1058,2.1027,2.1031,2.1057,2.1054,2.1093,2.1098,2.1107,2.1172,2.1184,2.1216,2.1164,2.1336,2.134,2.1344,2.1371,2.1378,2.1384,0,0,0,0,0,2.0865,2.0921,2.0917,2.0931,2.1004,2.106,2.107,2.1079,2.1059,2.1086,2.1105,2.1097,2.1205,2.1178,2.1192,2.1226,2.1334,2.1339,2.1344,2.1367,2.1377,2.1384,0,0,0,0,0,0,2.0886,2.0926,2.0922,2.0991,2.1022,2.1058,2.1093,2.1089,2.1126,2.1122,2.1132,2.1141,2.1202,2.122,2.1189,2.1294,2.1267,2.1274,2.128,2.1289,2.1296,2.129,2.1168,0,0,0,0,0,2.0898,2.0941,2.0973,2.1031,2.1047,2.1067,2.1092,2.1096,2.1129,2.1142,2.1165,2.1196,2.1237,2.1264,2.1304,2.1373,2.1381,2.1403,2.141,2.1415,2.1422,2.1458,2.1468,2.1362,2.1362,2.1362,0,0,2.0925,2.0952,2.0978,2.1036,2.1061,2.1104,2.1078,2.1125,2.1157,2.1149,2.1207,2.1225,2.1261,2.1326,2.1355,2.1343,2.1453,2.1421,2.1426,2.1429,2.1464,2.1474,2.1483,2.1365,2.1364,2.1364,0,0,2.0995,2.102,2.107,2.1095,2.1133,2.1146,2.1158,2.1194,2.1205,2.1264,2.1259,2.1296,2.1367,2.1392,2.1414,2.1491,2.1485,2.1504,2.154,2.1576,2.1584,2.1591,2.1618,2.1628,2.151,2.151,2.151,0,2.1023,2.1088,2.1097,2.1144,2.1169,2.1163,2.1214,2.1238,2.1286,2.1303,2.1288,2.1375,2.1399,2.1469,2.1488,2.1506,2.1519,2.15,2.1582,2.159,2.1597,2.1622,2.1633,2.1512,2.1512,2.1512,2.1512,0,2.112,2.1165,2.1201,2.1248,2.1277,2.1326,2.1341,2.1369,2.137,2.1384,2.1443,2.1471,2.1515,2.1532,2.1534,2.1602,2.1593,2.158,2.1553,2.1609,2.1633,2.1643,2.1515,2.1514,2.1514,2.1513,0,0,2.1206,2.1256,2.1269,2.1289,2.133,2.1364,2.1412,2.1455,2.1479,2.1512,2.1551,2.161,2.1598,2.1623,2.1628,2.1659,2.1717,2.1642,2.1643,2.1654,2.1792,2.1801,2.1813,2.1713,2.1715,2.1716,2.1789,0,2.1279,2.1364,2.1373,2.1448,2.1489,2.1483,2.1525,2.1553,2.1567,2.1603,2.1618,2.166,2.1641,2.1656,2.1686,2.1704,2.1745,2.1698,2.1749,2.1751,2.174,2.1826,2.1836,2.1903,2.1798,2.18,2.1801,0,2.1377,2.1412,2.1492,2.1525,2.1542,2.158,2.1619,2.1654,2.1686,2.1693,2.172,2.172,2.1768,2.1739,2.1804,2.1772,2.1793,2.1805,2.1807,2.1812,2.1779,2.1832,2.1925,2.1935,2.1816,2.1815,2.1814,0,2.1431,2.1498,2.1554,2.1572,2.1612,2.1638,2.1656,2.1686,2.1711,2.1745,2.1761,2.18,2.1822,2.1852,2.1862,2.184,2.1926,2.1898,2.1933,2.1933,2.1952,2.1951,2.2049,2.1966,2.1966,2.1966,2.1966,0,2.1512,2.156,2.1579,2.1613,2.1667,2.1676,2.1728,2.1745,2.1771,2.1808,2.1805,2.1839,2.1851,2.1887,2.1895,2.1947,2.1957,2.1964,2.1965,2.1964,2.1963,2.1978,2.1973,2.1968,2.1968,2.1967,2.1967,0,2.1581,2.1596,2.1656,2.1689,2.1698,2.1736,2.1764,2.1796,2.1809,2.1855,2.1867,2.1887,2.1929,2.1942,2.1992,2.1998,2.2058,2.2056,2.2048,2.2048,2.2082,2.2079,2.2193,2.2208,2.2116,2.2117,2.2118,0,2.1632,2.1669,2.1705,2.173,2.1748,2.1788,2.1813,2.1823,2.1849,2.1887,2.1914,2.1956,2.199,2.2057,2.2075,2.2114,2.2112,2.2149,2.2118,2.2115,2.2112,2.2109,2.2112,2.2155,2.2156,2.2157,2.2158,0,2.172,2.1724,2.1761,2.18,2.183,2.1861,2.1891,2.1911,2.1925,2.1954,2.1997,2.2023,2.2074,2.2115,2.2154,2.2171,2.2167,2.2167,2.2177,2.2176,2.217,2.2173,2.2064,2.2165,2.2164,2.2164,2.2163,2.2163,2.1781,2.1813,2.1843,2.1884,2.1907,2.1935,2.1966,2.1983,2.2019,2.2062,2.2065,2.2111,2.214,2.2191,2.221,2.2246,2.2235,2.225,2.2254,2.2257,2.2259,2.2164,2.2253,2.2253,2.2253,2.2253,2.2252,0,2.1868,2.1887,2.1924,2.1965,2.1997,2.199,2.2022,2.2048,2.2089,2.2117,2.215,2.2198,2.2238,2.2259,2.2298,2.2322,2.232,2.2332,2.233,2.2334,2.2267,2.2254,2.2332,2.2332,2.2332,2.2332,2.2332,2.2332,2.1917,2.1971,2.1979,2.2043,2.2062,2.2107,2.2126,2.2151,2.2173,2.2227,2.226,2.2273,2.2298,2.2338,2.2374,2.2379,2.2393,2.2405,2.2409,2.2347,2.2338,2.2331,2.2319,2.2408,2.2408,2.2472,2.2473,2.2473]}]]